Location: Starhoo Observatory
(41.8578°N, 70.9669°W)
Time: 10:55:13
(UTC-04:00)

ISS - Visible Passes

Search period start: 23 May 2015 00:00
Search period end: 02 June 2015 00:00
Orbit: 399 x 404 km, 51.6° (Epoch: 23 May)

Date Brightness Start Highest point End Pass type
(mag) Time Alt. Az. Time Alt. Az. Time Alt. Az.
23 May -1.5 02:48:10 23° NW 02:48:59 26° NNW 02:51:48 10° NE visible
23 May -0.5 04:24:16 10° NW 04:26:13 15° N 04:28:11 10° NE visible
24 May -1.4 01:56:38 30° NNE 01:56:38 30° NNE 01:58:44 10° NE visible
24 May -0.5 03:30:37 10° NW 03:32:44 16° N 03:34:50 10° NNE visible
25 May -0.4 01:05:02 14° NE 01:05:02 14° NE 01:05:37 10° NE visible
25 May -0.7 02:37:35 14° NW 02:39:15 19° NNW 02:41:38 10° NNE visible
25 May -0.4 04:14:31 10° NNW 04:16:35 15° N 04:18:38 10° NE visible
26 May -1.1 01:45:54 24° NNW 01:45:54 24° NNW 01:48:31 10° NE visible
26 May -0.3 03:21:06 10° NW 03:23:02 15° N 03:24:59 10° NE visible
27 May -0.7 00:54:07 20° NNE 00:54:07 20° NNE 00:55:24 10° NE visible
27 May -0.3 02:27:26 10° NW 02:29:29 15° N 02:31:31 10° NNE visible
27 May -0.4 04:04:24 10° NNW 04:06:48 19° NNE 04:09:14 10° ENE visible
28 May -0.2 00:02:11 10° NE 00:02:11 10° NE 00:02:13 10° NE visible
28 May -0.6 01:34:43 15° NW 01:35:56 18° NNW 01:38:14 10° NNE visible
28 May -0.3 03:11:09 10° NNW 03:13:15 16° N 03:15:22 10° NE visible
29 May -0.8 00:42:33 22° NNW 00:42:33 22° NNW 00:45:02 10° NE visible
29 May -0.2 02:17:43 10° NW 02:19:40 15° N 02:21:36 10° NE visible
29 May -0.9 03:54:04 10° NW 03:56:53 26° NNE 03:59:43 10° E visible
29 May -1.2 23:49:47 26° N 23:49:47 26° N 23:51:51 10° NE visible
30 May -0.1 01:24:02 10° NW 01:26:02 15° N 01:28:02 10° NNE visible
30 May -0.5 03:00:53 10° NW 03:03:21 20° NNE 03:05:51 10° ENE visible
30 May -3.2 04:36:54 10° NW 04:40:11 79° NE 04:43:26 10° ESE visible
30 May -2.0 21:16:53 10° S 21:19:15 19° SE 21:21:40 10° E visible
30 May -2.5 22:52:16 10° WSW 22:55:26 50° NNW 22:58:37 10° NE visible
31 May -0.3 00:30:10 10° NW 00:32:25 17° N 00:34:39 10° NNE visible
31 May -0.2 02:07:36 10° NNW 02:09:45 16° N 02:11:55 10° NE visible
31 May -2.1 03:43:38 10° NW 03:46:46 44° NNE 03:49:55 10° ESE visible
31 May -3.5 21:58:48 10° SW 22:02:03 87° SSE 22:05:19 10° NE visible
31 May -0.6 23:36:14 10° WNW 23:38:48 21° NNW 23:41:21 10° NE visible
01 Jun 0.0 01:14:08 10° NW 01:16:05 15° N 01:18:03 10° NE visible
01 Jun -1.1 02:50:24 10° NW 02:53:17 28° NNE 02:56:10 10° E visible
01 Jun -3.0 04:26:39 10° WNW 04:29:47 44° SW 04:32:54 10° SSE visible
01 Jun -3.0 21:05:38 10° SSW 21:08:43 43° SE 21:11:50 10° ENE visible
01 Jun -1.2 22:42:20 10° W 22:45:13 28° NNW 22:48:07 10° NE visible
